Find Starlink 32833

NORAD ID: 62873 Int'l Des: 2025-022 Owner: SPXS Country: US Constellation: starlink operational
LEOCIRCULAR

Live Position

Loading 3D Globe...

About Starlink 32833

Description loading...

Upcoming Passes

Passes for default location (London). Set your location on the main map for personalized predictions.

Altitude History

Loading altitude history...

Two-Line Element Set

1 62873U 25022V 26124.02676020 .00024340 00000-0 83088-3 0 9998
2 62873 53.1608 232.4954 0001566 100.1469 259.9708 15.30213033 70377
Epoch: May 4, 2026 • Age: 9 hours

Current Status

Altitude 475.2 km
Velocity 7.63 km/s
Sub-Earth Point 15.52°N, 131.69°W
Launch Date Feb 2, 2025
Age 1.2 years
Type internet

Technical Details

Classification Payload
Mass 730.00 kg
Dry Mass 700.00 kg
Total Mass 730.00 kg
Length 0.30 m
Diameter 4.10 m
Span 29.00 m
Shape Box + pan
Manufacturer SPXS
Bus Type Starlink V2M
Phase Status In Orbit
Owner/State SPXS/US

Most Searched